CW9861 Weather Reports


Display with metric or nautical units.
time (UTC)temp
F
wind
direction
speed
MPH
gust
MPH
rain 1hr
in
rain 24hr
in
rain mn
in
humidity
%
barometer
mb
20260507232457 51 332 2.0 4.0 0.00 0.00 0.00 50 1009.3
20260507231957 51 276 2.0 6.0 0.00 0.00 0.00 50 1009.4
20260507231456 51 309 2.0 6.0 0.00 0.00 0.00 49 1009.4
20260507223957 52 314 2.0 6.0 0.00 0.00 0.00 48 1009.6
20260507223456 52 266 2.0 5.0 0.00 0.00 0.00 48 1009.6
20260507222957 53 328 2.0 8.0 0.00 0.00 0.00 48 1009.6
20260507222457 53 276 3.0 10.0 0.00 0.00 0.00 47 1009.6
20260507221957 53 276 3.0 8.0 0.00 0.00 0.00 48 1009.7
20260507221457 54 259 3.0 9.0 0.00 0.00 0.00 46 1009.7
20260507220957 54 259 3.0 10.0 0.00 0.00 0.00 48 1009.7
20260507220458 54 290 4.0 11.0 0.00 0.00 0.00 47 1009.7
20260507215959 52 223 4.0 11.0 0.00 0.00 0.00 48 1009.7
20260507215457 52 266 3.0 9.0 0.00 0.00 0.00 47 1009.7
20260507214956 53 334 2.0 9.0 0.00 0.00 0.00 47 1009.7
20260507214456 54 283 3.0 9.0 0.00 0.00 0.00 44 1009.7
20260507213957 55 282 3.0 11.0 0.00 0.00 0.00 48 1009.7
20260507213457 55 255 5.0 11.0 0.00 0.00 0.00 44 1009.6
20260507212956 54 232 3.0 6.0 0.00 0.00 0.00 47 1009.6
20260507212457 54 291 2.0 6.0 0.00 0.00 0.00 48 1009.6
20260507211956 55 199 3.0 6.0 0.00 0.00 0.00 47 1009.5
20260507211458 54 276 3.0 10.0 0.00 0.00 0.00 44 1009.6
20260507210956 55 271 5.0 15.0 0.00 0.00 0.00 44 1009.7
20260507210457 54 276 5.0 15.0 0.00 0.00 0.00 44 1009.6
20260507205959 55 228 6.0 14.0 0.00 0.00 0.00 45 1009.7
20260507205457 53 247 3.0 12.0 0.00 0.00 0.00 45 1009.8
20260507204956 55 313 5.0 12.0 0.00 0.00 0.00 45 1010.0
20260507204456 56 349 4.0 12.0 0.00 0.00 0.00 45 1010.0
20260507203957 55 324 6.0 12.0 0.00 0.00 0.00 44 1009.9
20260507203456 55 184 4.0 10.0 0.00 0.00 0.00 44 1009.9
20260507202957 53 281 3.0 10.0 0.00 0.00 0.00 46 1009.9
20260507202457 54 324 5.0 14.0 0.00 0.00 0.00 42 1010.0
20260507201956 55 305 5.0 14.0 0.00 0.00 0.00 45 1010.1
20260507201457 54 266 3.0 9.0 0.00 0.00 0.00 45 1010.1
20260507200956 53 257 5.0 11.0 0.00 0.00 0.00 46 1010.2
20260507200456 54 213 6.0 11.0 0.00 0.00 0.00 44 1010.3
20260507195959 54 244 4.0 11.0 0.00 0.00 0.00 43 1010.3
20260507195458 55 258 4.0 13.0 0.00 0.00 0.00 43 1010.4
20260507194957 54 226 6.0 13.0 0.00 0.00 0.00 45 1010.4
20260507194456 55 218 4.0 13.0 0.00 0.00 0.00 43 1010.5
20260507193956 56 241 6.0 12.0 0.00 0.00 0.00 43 1010.5
20260507193457 55 228 3.0 10.0 0.00 0.00 0.00 46 1010.5
20260507192957 54 333 5.0 10.0 0.00 0.00 0.00 45 1010.6
20260507192458 54 314 5.0 16.0 0.00 0.00 0.00 45 1010.6
20260507191956 54 243 7.0 16.0 0.00 0.00 0.00 44 1010.6
20260507191456 55 226 3.0 12.0 0.00 0.00 0.00 45 1010.7
20260507190957 54 238 5.0 13.0 0.00 0.00 0.00 46 1010.8
20260507190457 53 335 6.0 13.0 0.00 0.00 0.00 44 1010.7
20260507185959 52 306 3.0 8.0 0.00 0.00 0.00 48 1010.7
20260507185457 51 303 5.0 13.0 0.00 0.00 0.00 45 1010.9
20260507184957 52 282 5.0 13.0 0.00 0.00 0.00 45 1010.8
20260507184457 53 319 3.0 10.0 0.00 0.00 0.00 45 1010.7
20260507183957 54 229 5.0 12.0 0.00 0.00 0.00 44 1010.6
20260507183458 54 259 6.0 12.0 0.00 0.00 0.00 45 1010.6
20260507182956 54 293 5.0 12.0 0.00 0.00 0.00 44 1010.7
20260507182456 54 294 4.0 14.0 0.00 0.00 0.00 44 1010.6
20260507181957 53 309 7.0 14.0 0.00 0.00 0.00 44 1010.7
20260507181456 54 315 6.0 16.0 0.00 0.00 0.00 42 1010.7
20260507180957 54 224 4.0 16.0 0.00 0.00 0.00 45 1010.6
20260507180457 54 260 3.0 10.0 0.00 0.00 0.00 44 1010.6
20260507175958 55 299 5.0 12.0 0.00 0.00 0.00 47 1010.7
20260507175458 54 250 4.0 14.0 0.00 0.00 0.00 47 1010.7
20260507174956 54 262 6.0 14.0 0.00 0.00 0.00 44 1010.9
20260507174457 55 298 5.0 12.0 0.00 0.00 0.00 45 1011.0
20260507173956 54 293 3.0 14.0 0.00 0.00 0.00 48 1010.9
20260507173457 53 243 4.0 14.0 0.00 0.00 0.00 50 1010.9
20260507172956 52 288 4.0 11.0 0.00 0.00 0.00 48 1011.1
20260507172456 53 311 5.0 15.0 0.00 0.00 0.00 48 1011.2
20260507171958 54 296 5.0 15.0 0.00 0.00 0.00 51 1011.2
20260507171457 53 226 6.0 12.0 0.00 0.00 0.00 50 1011.3
20260507170957 53 297 3.0 13.0 0.00 0.00 0.00 48 1011.3
20260507170457 53 242 6.0 13.0 0.00 0.00 0.00 48 1011.4
20260507165958 53 314 6.0 18.0 0.00 0.00 0.00 47 1011.5
20260507165457 54 312 5.0 13.0 0.00 0.00 0.00 49 1011.7
20260507164956 54 201 7.0 13.0 0.00 0.00 0.00 47 1011.7
20260507164457 53 328 3.0 15.0 0.00 0.00 0.00 50 1011.8
20260507163956 51 262 6.0 15.0 0.00 0.00 0.00 50 1011.8
20260507163458 52 340 5.0 11.0 0.00 0.00 0.00 46 1011.9
20260507162957 53 326 4.0 11.0 0.00 0.00 0.00 50 1011.8
20260507162457 53 218 3.0 9.0 0.00 0.00 0.00 50 1011.9
20260507161957 52 326 4.0 13.0 0.00 0.00 0.00 49 1011.9
20260507161456 51 317 5.0 13.0 0.00 0.00 0.00 52 1012.0
20260507160956 50 328 5.0 15.0 0.00 0.00 0.00 51 1012.0
20260507160456 51 299 4.0 15.0 0.00 0.00 0.00 49 1012.0
20260507155958 51 285 5.0 16.0 0.00 0.00 0.00 50 1012.1
20260507155457 50 252 8.0 16.0 0.00 0.00 0.00 49 1012.0
20260507154956 51 266 4.0 13.0 0.00 0.00 0.00 52 1012.0
20260507154457 50 257 5.0 11.0 0.00 0.00 0.00 52 1012.0
20260507153956 49 197 5.0 12.0 0.00 0.00 0.00 52 1012.0
20260507153456 49 290 7.0 12.0 0.00 0.00 0.00 51 1012.0
20260507152956 50 271 6.0 12.0 0.00 0.00 0.00 51 1012.0
20260507152456 49 286 5.0 12.0 0.00 0.00 0.00 52 1012.0
20260507151956 49 332 5.0 11.0 0.00 0.00 0.00 55 1012.0
20260507151457 50 280 4.0 11.0 0.00 0.00 0.00 51 1012.0
20260507150958 51 280 4.0 10.0 0.00 0.00 0.00 50 1011.9
20260507150457 50 321 3.0 10.0 0.00 0.00 0.00 54 1012.0
20260507145956 49 339 4.0 8.0 0.00 0.00 0.00 55 1011.9
20260507145456 47 261 1.0 10.0 0.00 0.00 0.00 58 1012.0
20260507144957 46 256 4.0 12.0 0.00 0.00 0.00 58 1012.1
20260507144457 47 294 4.0 12.0 0.00 0.00 0.00 57 1012.1
20260507143957 47 286 4.0 13.0 0.00 0.00 0.00 55 1012.0
20260507143456 47 244 3.0 13.0 0.00 0.00 0.00 56 1012.0
20260507142956 47 266 4.0 11.0 0.00 0.00 0.00 53 1012.1
20260507142458 49 315 3.0 11.0 0.00 0.00 0.00 53 1012.1
20260507141958 48 297 4.0 13.0 0.00 0.00 0.00 54 1012.2
20260507141457 50 343 6.0 13.0 0.00 0.00 0.00 51 1012.2
20260507140957 50 314 3.0 11.0 0.00 0.00 0.00 55 1012.2
20260507140457 49 276 4.0 11.0 0.00 0.00 0.00 57 1012.2
20260507135958 48 286 4.0 8.0 0.00 0.00 0.00 58 1012.3
20260507135457 48 318 4.0 10.0 0.00 0.00 0.00 59 1012.2
20260507134957 48 305 3.0 9.0 0.00 0.00 0.00 63 1012.1
20260507134457 48 249 3.0 11.0 0.00 0.00 0.00 61 1012.2
20260507133956 48 271 4.0 13.0 0.00 0.00 0.00 63 1012.3
20260507133458 47 307 4.0 13.0 0.00 0.00 0.00 64 1012.2
20260507132958 47 257 3.0 9.0 0.00 0.00 0.00 66 1012.1
20260507132457 47 220 3.0 9.0 0.00 0.00 0.00 65 1012.2
20260507131957 46 307 3.0 8.0 0.00 0.00 0.00 66 1012.2
20260507131456 46 266 4.0 8.0 0.00 0.00 0.00 66 1012.2
20260507123956 41 222 2.0 5.0 0.00 0.00 0.00 79 1011.9
20260507123457 41 248 1.0 5.0 0.00 0.00 0.00 80 1011.9
20260507122957 40 250 2.0 10.0 0.00 0.00 0.00 81 1011.9
20260507122456 40 259 3.0 10.0 0.00 0.00 0.00 82 1011.9
20260507121956 39 286 2.0 6.0 0.00 0.00 0.00 83 1011.8
20260507121456 38 236 3.0 5.0 0.00 0.00 0.00 84 1011.7
20260507120956 38 284 1.0 3.0 0.00 0.00 0.00 85 1011.9
20260507120456 37 222 1.0 6.0 0.00 0.00 0.00 86 1011.9
20260507115957 36 202 3.0 6.0 0.00 0.00 0.00 86 1011.9
20260507115456 36 301 2.0 4.0 0.00 0.00 0.00 86 1011.8
20260507114956 35 252 2.0 5.0 0.00 0.00 0.00 86 1011.8
20260507114457 34 220 2.0 4.0 0.00 0.00 0.00 86 1011.6
20260507113956 34 233 1.0 3.0 0.00 0.00 0.00 86 1011.6
20260507094958 35 276 0.0 0.0 0.00 0.00 0.00 77 1011.0
20260507094456 35 276 0.0 0.0 0.00 0.00 0.00 77 1011.0
20260507093958 35 276 0.0 0.0 0.00 0.00 0.00 77 1011.0
20260507093456 35 276 0.0 0.0 0.00 0.00 0.00 76 1011.0
20260507092956 36 276 0.0 0.0 0.00 0.00 0.00 76 1011.1
20260507092457 36 276 0.0 0.0 0.00 0.00 0.00 76 1011.1
20260507091957 36 276 0.0 0.0 0.00 0.00 0.00 75 1011.1
20260507091457 36 276 0.0 0.0 0.00 0.00 0.00 75 1011.1
20260507090957 36 276 0.0 0.0 0.00 0.00 0.00 74 1011.2
20260507090456 37 276 0.0 0.0 0.00 0.00 0.00 74 1011.3
20260507085956 37 276 0.0 1.0 0.00 0.00 0.00 74 1011.2
20260507085457 37 276 0.0 1.0 0.00 0.00 0.00 74 1011.2
20260507084956 37 276 0.0 1.0 0.00 0.00 0.00 74 1011.2
20260507084456 37 276 0.0 0.0 0.00 0.00 0.00 74 1011.3
20260507083956 38 276 0.0 0.0 0.00 0.00 0.00 75 1011.3
20260507083456 38 276 0.0 0.0 0.00 0.00 0.00 75 1011.3
20260507082957 38 276 0.0 0.0 0.00 0.00 0.00 74 1011.3
20260507082456 38 276 0.0 1.0 0.00 0.00 0.00 74 1011.3
20260507081957 38 276 0.0 1.0 0.00 0.00 0.00 73 1011.3
20260507073957 40 276 0.0 1.0 0.00 0.00 0.00 69 1011.5
20260507073456 40 276 0.0 1.0 0.00 0.00 0.00 68 1011.4
20260507072957 40 276 0.0 2.0 0.00 0.00 0.00 68 1011.4
20260507072456 41 313 1.0 2.0 0.00 0.00 0.00 68 1011.4
20260507071956 41 312 0.0 4.0 0.00 0.00 0.00 69 1011.3
20260507071456 41 312 0.0 4.0 0.00 0.00 0.00 69 1011.4
20260507070956 41 313 2.0 5.0 0.00 0.00 0.00 69 1011.5
20260507063456 41 280 1.0 4.0 0.00 0.00 0.00 71 1011.6
20260507062956 40 305 2.0 4.0 0.00 0.00 0.00 71 1011.5
20260507062456 40 308 1.0 4.0 0.00 0.00 0.00 72 1011.6
20260507061956 40 315 1.0 2.0 0.00 0.00 0.00 73 1011.6
20260507061457 40 299 0.0 2.0 0.00 0.00 0.00 73 1011.6
20260507060956 40 299 0.0 2.0 0.00 0.00 0.00 73 1011.6
20260507060457 40 299 0.0 2.0 0.00 0.00 0.00 73 1011.6
20260507055957 40 299 0.0 0.0 0.00 0.00 0.00 73 1011.7
20260507055456 40 299 0.0 0.0 0.00 0.00 0.00 72 1011.6
20260507054957 40 299 0.0 0.0 0.00 0.00 0.00 72 1011.6
20260507054457 40 299 0.0 0.0 0.00 0.00 0.00 72 1011.6
20260507053956 40 299 0.0 0.0 0.00 0.00 0.00 72 1011.7
20260507053457 40 299 0.0 0.0 0.00 0.00 0.00 72 1011.6
20260507052957 40 299 0.0 0.0 0.00 0.00 0.00 71 1011.6
20260507052456 40 299 0.0 0.0 0.00 0.00 0.00 70 1011.7
20260507051956 40 299 0.0 0.0 0.00 0.00 0.00 70 1011.8
20260507051456 40 299 0.0 0.0 0.00 0.00 0.00 69 1011.8
20260507050956 40 299 0.0 0.0 0.00 0.00 0.00 68 1011.8
20260507050456 40 299 0.0 0.0 0.00 0.00 0.00 67 1011.8
20260507045958 40 299 0.0 0.0 0.00 0.00 0.00 67 1011.8
20260507045457 41 299 0.0 0.0 0.00 0.00 0.00 66 1011.8
20260507044957 41 299 0.0 0.0 0.00 0.00 0.00 64 1011.7
20260507044457 41 299 0.0 0.0 0.00 0.00 0.00 63 1011.7
20260507043958 41 299 0.0 0.0 0.00 0.00 0.00 62 1011.7
20260507043458 41 299 0.0 0.0 0.00 0.00 0.00 60 1011.8
20260507042958 42 299 0.0 0.0 0.00 0.00 0.00 59 1011.8
20260507042457 42 299 0.0 0.0 0.00 0.00 0.00 58 1011.8
20260507031957 45 309 0.0 2.0 0.00 0.00 0.00 56 1012.0
20260507031457 46 309 0.0 2.0 0.00 0.00 0.00 56 1012.0
20260507030957 46 305 1.0 2.0 0.00 0.00 0.00 55 1012.0
20260507030457 46 297 0.0 2.0 0.00 0.00 0.00 55 1012.0
20260507025959 46 297 0.0 2.0 0.00 0.00 0.00 55 1012.0
20260507025457 46 295 0.0 2.0 0.00 0.00 0.00 55 1012.0
20260507024957 46 290 0.0 4.0 0.00 0.00 0.00 55 1012.0
20260507024457 46 290 1.0 4.0 0.00 0.00 0.00 54 1012.0
20260507023957 47 284 0.0 3.0 0.00 0.00 0.00 54 1012.0
20260507023457 47 309 1.0 3.0 0.00 0.00 0.00 54 1011.9
20260507022957 47 322 1.0 3.0 0.00 0.00 0.00 54 1012.0
20260507022457 47 295 1.0 2.0 0.00 0.00 0.00 54 1011.9
20260507021957 47 297 0.0 2.0 0.00 0.00 0.00 54 1011.9
20260507021457 47 290 0.0 2.0 0.00 0.00 0.00 54 1011.9
20260507020957 47 244 1.0 2.0 0.00 0.00 0.00 53 1011.8
20260507020457 48 266 1.0 3.0 0.00 0.00 0.00 53 1011.7
20260507015957 48 305 1.0 3.0 0.00 0.00 0.00 53 1011.8
20260507015457 48 308 0.0 2.0 0.00 0.00 0.00 52 1011.7
20260507014958 48 307 1.0 3.0 0.00 0.00 0.00 52 1011.7
20260507014457 48 318 1.0 3.0 0.00 0.00 0.00 52 1011.6
20260507013958 48 308 0.0 3.0 0.00 0.00 0.00 52 1011.7
20260507013456 48 257 1.0 4.0 0.00 0.00 0.00 52 1011.6
20260507012958 48 306 1.0 5.0 0.00 0.00 0.00 51 1011.6
20260507012457 48 326 1.0 5.0 0.00 0.00 0.00 51 1011.6
20260507011956 49 271 1.0 2.0 0.00 0.00 0.00 50 1011.5
20260507011457 49 261 0.0 3.0 0.00 0.00 0.00 50 1011.5
20260507010957 49 297 1.0 4.0 0.00 0.00 0.00 50 1011.5
20260507010458 49 307 2.0 4.0 0.00 0.00 0.00 50 1011.5
20260507005957 49 309 2.0 4.0 0.00 0.00 0.00 49 1011.5
20260507005457 49 315 1.0 4.0 0.00 0.00 0.00 49 1011.5
20260507004956 49 293 1.0 5.0 0.00 0.00 0.00 50 1011.5
20260507004457 49 310 1.0 5.0 0.00 0.00 0.00 50 1011.4
20260507003956 50 258 1.0 3.0 0.00 0.00 0.00 50 1011.5
20260507003456 50 299 1.0 6.0 0.00 0.00 0.00 49 1011.4
20260507002957 50 301 2.0 7.0 0.00 0.00 0.00 48 1011.3
20260507002457 50 261 3.0 10.0 0.00 0.00 0.00 48 1011.3
20260507001956 50 240 1.0 5.0 0.00 0.00 0.00 49 1011.1
20260507001457 50 282 1.0 4.0 0.00 0.00 0.00 49 1011.0
20260507000957 50 329 2.0 6.0 0.00 0.00 0.00 48 1011.0
20260507000458 50 219 2.0 6.0 0.00 0.00 0.00 48 1011.0
20260506235956 50 266 3.0 6.0 0.00 0.00 0.00 48 1011.0
20260506235457 50 320 2.0 6.0 0.00 0.00 0.00 48 1011.0
20260506234958 51 215 2.0 5.0 0.00 0.00 0.00 47 1010.9
20260506234456 51 325 2.0 5.0 0.00 0.00 0.00 47 1011.0
20260506233956 51 282 2.0 9.0 0.00 0.00 0.00 47 1011.0
20260506233457 51 288 3.0 7.0 0.00 0.00 0.00 47 1011.0
20260506232957 51 299 2.0 7.0 0.00 0.00 0.00 47 1011.0